CW8553 Weather Reports


Display with metric or nautical units.
time (UTC)temp
F
wind
direction
speed
MPH
gust
MPH
rain 1hr
in
rain 24hr
in
rain mn
in
humidity
%
barometer
mb
20260901170048 60 0 0.0 3.0 0.00 0.00 0.00 86 1010.4
20260901164553 60 0 0.0 4.0 0.00 0.00 0.00 87 1010.4
20260901163045 59 0 0.0 2.0 0.00 0.00 0.00 89 1010.5
20260901161544 59 0 0.0 1.0 0.00 0.00 0.00 89 1010.5
20260901160042 59 0 0.0 1.0 0.00 0.00 0.00 90 1010.5
20260901154546 58 0 0.0 0.0 0.00 0.00 0.00 91 1010.5
20260901153053 58 244 0.0 1.0 0.00 0.00 0.00 91 1010.7
20260901151544 58 0 0.0 1.0 0.00 0.00 0.00 92 1010.7
20260901150049 58 0 0.0 2.0 0.00 0.00 0.00 92 1010.6
20260901144546 57 0 0.0 2.0 0.00 0.00 0.00 92 1010.4
20260901143045 57 0 0.0 3.0 0.00 0.00 0.00 92 1010.3
20260901141542 57 239 1.0 5.0 0.00 0.00 0.00 93 1010.3
20260901140046 57 229 1.0 7.0 0.00 0.00 0.00 93 1010.1
20260901134605 57 0 0.0 3.0 0.00 0.00 0.00 92 1010.0
20260901133048 57 0 0.0 4.0 0.00 0.00 0.00 92 1010.1
20260901131543 57 211 0.0 3.0 0.00 0.00 0.00 92 1010.1
20260901130048 56 0 0.0 3.0 0.00 0.00 0.00 91 1010.0
20260901124553 55 24 0.0 0.0 0.00 0.00 0.00 91 1009.9
20260901123044 55 0 0.0 0.0 0.00 0.00 0.00 90 1009.9
20260901121549 55 0 0.0 0.0 0.00 0.00 0.00 90 1009.7
20260901120045 54 0 0.0 0.0 0.00 0.00 0.00 89 1009.7
20260901114557 54 0 0.0 0.0 0.00 0.00 0.00 89 1009.4
20260901113042 55 0 0.0 0.0 0.00 0.00 0.00 89 1009.3
20260901111544 55 0 0.0 0.0 0.00 0.00 0.00 88 1009.3
20260901110052 55 0 0.0 0.0 0.00 0.00 0.00 87 1009.2
20260901104544 55 0 0.0 0.0 0.00 0.00 0.00 87 1009.3
20260901103042 56 0 0.0 0.0 0.00 0.00 0.00 87 1009.2
20260901101547 56 0 0.0 0.0 0.00 0.00 0.00 88 1009.0
20260901100049 56 0 0.0 0.0 0.00 0.00 0.00 86 1008.9
20260901094547 57 0 0.0 0.0 0.00 0.00 0.00 85 1008.8
20260901093044 57 0 0.0 0.0 0.00 0.00 0.00 85 1008.8
20260901091548 58 0 0.0 0.0 0.00 0.00 0.00 84 1008.9
20260901090045 58 0 0.0 0.0 0.00 0.00 0.00 84 1008.8
20260901084547 59 0 0.0 0.0 0.00 0.00 0.00 82 1008.8
20260901083041 59 0 0.0 0.0 0.00 0.00 0.00 81 1008.8
20260901081548 60 0 0.0 0.0 0.00 0.00 0.00 81 1008.8
20260901080052 60 0 0.0 0.0 0.00 0.00 0.00 81 1008.7
20260901074557 61 0 0.0 1.0 0.00 0.00 0.00 80 1008.6
20260901073042 61 0 0.0 0.0 0.00 0.00 0.00 79 1008.6
20260901071546 62 0 0.0 1.0 0.00 0.00 0.00 78 1008.7
20260901070046 62 0 0.0 1.0 0.00 0.00 0.00 78 1008.5
20260901064544 62 0 0.0 0.0 0.00 0.00 0.00 77 1008.5
20260901063044 62 0 0.0 1.0 0.00 0.00 0.00 77 1008.6
20260901061547 63 0 0.0 1.0 0.00 0.00 0.00 76 1008.6
20260901060047 63 0 0.0 0.0 0.00 0.00 0.00 75 1008.6
20260901054544 64 41 0.0 2.0 0.00 0.00 0.00 74 1008.6
20260901053050 63 0 0.0 2.0 0.00 0.00 0.00 74 1008.8
20260901051545 64 0 0.0 0.0 0.00 0.00 0.00 73 1008.8
20260901050043 64 0 0.0 1.0 0.00 0.00 0.00 73 1008.8
20260901044541 64 0 0.0 2.0 0.00 0.00 0.00 73 1008.9
20260901043048 64 0 0.0 0.0 0.00 0.00 0.00 74 1008.8
20260901041547 64 0 0.0 0.0 0.00 0.00 0.00 72 1008.8
20260901040056 65 0 0.0 0.0 0.00 0.00 0.00 71 1008.8
20260901034542 65 0 0.0 0.0 0.00 0.00 0.00 71 1008.6
20260901033045 66 0 0.0 0.0 0.00 0.00 0.00 69 1008.4
20260901031545 67 0 0.0 0.0 0.00 0.00 0.00 68 1008.2
20260901030042 67 0 0.0 2.0 0.00 0.00 0.00 66 1008.3
20260901024542 68 0 0.0 3.0 0.00 0.00 0.00 64 1008.3
20260901023048 69 0 0.0 2.0 0.00 0.00 0.00 62 1008.3
20260901021545 69 27 0.0 3.0 0.00 0.00 0.00 62 1008.4
20260901020043 69 0 0.0 2.0 0.00 0.00 0.00 62 1008.5
20260901014544 70 360 0.0 2.0 0.00 0.00 0.00 63 1008.4
20260901013105 71 0 0.0 4.0 0.00 0.00 0.00 62 1008.4
20260901011546 71 0 0.0 3.0 0.00 0.00 0.00 62 1008.3
20260901010046 72 0 0.0 2.0 0.00 0.00 0.00 60 1008.4
20260901004546 74 285 0.0 2.0 0.00 0.00 0.00 57 1008.4
20260901003044 75 11 0.0 2.0 0.00 0.00 0.00 57 1008.3
20260901001545 76 302 0.0 3.0 0.00 0.00 0.00 56 1008.5
20260901000046 76 360 1.0 4.0 0.00 0.00 0.00 52 1008.5
20260831234551 77 29 0.0 4.0 0.00 0.00 0.00 52 1008.7
20260831233048 76 51 0.0 3.0 0.00 0.00 0.00 54 1008.8
20260831231547 76 352 0.0 3.0 0.00 0.00 0.00 52 1009.0
20260831230044 76 5 0.0 3.0 0.00 0.00 0.00 52 1009.2
20260831224542 76 352 0.0 3.0 0.00 0.00 0.00 53 1009.3
20260831223049 76 0 0.0 2.0 0.00 0.00 0.00 53 1009.6
20260831221600 74 360 1.0 4.0 0.00 0.00 0.00 54 1009.7
20260831220044 73 251 0.0 2.0 0.00 0.00 0.00 58 1009.9
20260831214544 73 0 1.0 3.0 0.00 0.00 0.00 60 1010.0
20260831213047 73 0 1.0 3.0 0.00 0.00 0.00 58 1010.2
20260831211543 72 328 0.0 3.0 0.00 0.00 0.00 58 1010.3
20260831210041 73 327 0.0 3.0 0.00 0.00 0.00 60 1010.4
20260831204541 73 115 0.0 6.0 0.00 0.00 0.00 61 1010.5
20260831203104 72 53 1.0 4.0 0.00 0.00 0.00 60 1010.8
20260831201557 72 79 1.0 6.0 0.00 0.00 0.00 62 1010.9
20260831200131 71 5 2.0 6.0 0.00 0.00 0.00 66 1011.0
20260831194542 70 0 1.0 4.0 0.00 0.00 0.00 65 1011.2
20260831193046 71 108 0.0 5.0 0.00 0.00 0.00 65 1011.6
20260831191547 69 351 1.0 6.0 0.00 0.00 0.00 66 1011.9
20260831190046 69 352 1.0 7.0 0.00 0.00 0.00 66 1012.2
20260831184546 68 13 2.0 4.0 0.00 0.00 0.00 71 1012.3
20260831183046 67 285 0.0 3.0 0.00 0.00 0.00 71 1012.4
20260831181551 66 0 0.0 4.0 0.00 0.00 0.00 72 1012.7
20260831180045 66 0 0.0 5.0 0.00 0.00 0.00 70 1012.8
20260831174550 67 0 0.0 6.0 0.00 0.00 0.00 70 1012.9
20260831173046 65 59 1.0 5.0 0.00 0.00 0.00 75 1013.1
20260831171546 65 15 1.0 8.0 0.00 0.00 0.00 75 1013.1